DATACODE,RECTYPE,RECYEAR,RECMONTH,RECDAY,WATERSHED,RECTIME,UB2,UB10,UB25,B2,B10,B25,COMMENT
ast01,4,1988,04,21,w001,2400,15.41,14.93,12.94,17.83,17.81,13.56,
ast01,4,1988,04,22,w001,2400,12.74,12.59,12.39,14.93,14.89,13.20,
ast01,4,1988,04,23,w001,2400,10.55,10.97,11.61,12.99,13.23,12.54,
ast01,4,1988,04,24,w001,2400,12.15,11.82,11.32,15.76,14.97,12.90,
ast01,4,1988,04,25,w001,2400,13.19,13.07,12.10,16.97,16.44,14.27,
ast01,4,1988,04,26,w001,2400,11.45,11.49,11.87,13.89,14.23,13.93,
ast01,4,1988,04,27,w001,2400,10.84,10.61,11.11,15.03,14.33,13.00,
ast01,4,1988,04,28,w001,2400,12.78,12.49,11.78,18.70,17.47,14.62,
ast01,4,1988,04,29,w001,2400,13.22,13.27,12.27,17.87,17.44,15.74,
ast01,4,1988,04,30,w001,2400,14.81,14.49,12.90,20.33,19.26,16.48,
ast01,4,1988,05,01,w001,2400,14.97,14.82,13.49,20.08,19.33,17.22,
ast01,4,1988,05,02,w001,2400,14.11,14.14,13.41,17.81,17.91,17.17,
ast01,4,1988,05,08,w001,2400,17.60,17.18,16.37,22.42,22.08,20.03,
ast01,4,1988,05,09,w001,2400,15.72,15.47,15.69,21.01,20.69,19.24,
ast01,4,1988,05,10,w001,2400,16.35,15.88,15.50,22.04,21.41,19.28,
ast01,4,1988,05,11,w001,2400,17.26,16.70,15.94,23.00,22.36,19.90,
ast01,4,1988,05,12,w001,2400,18.87,18.00,16.69,24.33,23.73,20.71,
ast01,4,1988,05,13,w001,2400,20.33,19.50,17.57,25.42,24.98,21.79,
ast01,4,1988,05,14,w001,2400,20.45,19.65,17.82,24.72,24.73,22.27,
ast01,4,1988,05,15,w001,2400,20.22,19.88,18.13,24.49,24.68,22.36,
ast01,4,1988,05,16,w001,2400,18.56,18.67,17.51,22.93,23.34,21.76,
ast01,4,1988,05,17,w001,2400,19.29,19.18,17.39,23.25,23.44,21.60,
ast01,4,1988,05,18,w001,2400,21.43,20.85,18.11,24.97,25.01,22.24,
ast01,4,1988,05,19,w001,2400,22.22,21.64,18.96,25.53,25.72,23.03,
ast01,4,1988,05,20,w001,2400,21.59,21.21,19.09,24.37,24.96,23.13,
ast01,4,1988,05,21,w001,2400,18.99,19.32,18.38,21.01,21.78,21.92,
ast01,4,1988,05,22,w001,2400,19.64,19.64,18.37,20.88,21.09,20.82,
ast01,4,1988,05,23,w001,2400,18.73,18.68,18.33,19.40,19.56,20.22,
ast01,4,1988,05,24,w001,2400,19.84,19.60,18.36,21.01,20.79,19.98,
ast01,4,1988,05,25,w001,2400,19.91,20.20,18.54,20.93,21.39,20.53,
ast01,4,1988,05,26,w001,2400,19.61,20.27,18.46,19.84,21.36,20.67,
ast01,4,1988,05,27,w001,2400,20.04,20.41,18.49,21.09,22.14,20.70,
ast01,4,1988,05,28,w001,2400,20.40,20.61,18.79,21.90,22.59,21.11,
ast01,4,1988,05,29,w001,2400,20.54,20.76,18.93,21.86,22.55,21.20,
ast01,4,1988,05,30,w001,2400,21.21,21.27,19.28,22.61,23.04,21.38,
ast01,4,1988,05,31,w001,2400,21.22,21.34,19.53,22.31,22.97,21.67,
ast01,4,1988,06,01,w001,2400,20.15,20.56,19.26,20.66,21.54,21.04,
ast01,4,1988,06,02,w001,2400,20.28,20.30,19.13,20.36,21.14,20.66,
ast01,4,1988,06,03,w001,2400,20.94,20.75,19.30,21.57,21.41,20.59,
ast01,4,1988,06,04,w001,2400,20.99,21.00,19.59,21.57,22.12,21.08,
ast01,4,1988,06,05,w001,2400,20.50,20.55,19.23,20.36,21.59,20.83,
ast01,4,1988,06,06,w001,2400,20.40,20.39,18.98,20.61,21.61,20.58,
ast01,4,1988,06,07,w001,2400,22.28,21.69,19.67,22.72,23.12,21.19,
ast01,4,1988,06,08,w001,2400,24.24,22.79,20.77,25.06,24.76,22.32,
ast01,4,1988,06,09,w001,2400,21.91,21.71,20.54,23.35,23.73,22.56,
ast01,4,1988,06,10,w001,2400,19.80,19.67,18.99,20.73,21.65,21.24,
ast01,4,1988,06,11,w001,2400,21.23,20.43,19.00,21.51,22.19,21.06,
ast01,4,1988,06,12,w001,2400,22.68,21.58,19.58,22.96,23.20,21.48,
ast01,4,1988,06,13,w001,2400,24.06,22.56,20.44,24.24,24.33,22.24,
ast01,4,1988,06,14,w001,2400,23.54,22.16,20.67,23.62,23.68,22.51,
ast01,4,1988,06,15,w001,2400,22.36,21.74,20.50,22.61,22.56,22.05,
ast01,4,1988,06,16,w001,2400,22.95,21.86,20.34,22.70,22.69,21.58,
ast01,4,1988,06,17,w001,2400,23.79,22.50,20.84,23.64,23.75,22.14,
ast01,4,1988,06,18,w001,2400,25.61,23.74,21.60,25.28,25.07,22.80,
ast01,4,1988,06,19,w001,2400,27.41,24.81,22.60,26.94,26.44,23.80,
ast01,4,1988,06,20,w001,2400,28.35,25.73,23.37,27.90,27.40,24.67,
ast01,4,1988,06,21,w001,2400,28.59,25.99,23.87,28.21,27.76,25.22,
ast01,4,1988,06,22,w001,2400,28.12,25.90,23.93,28.10,27.69,25.54,
ast01,4,1988,06,23,w001,2400,28.88,26.34,24.18,28.51,28.06,25.68,
ast01,4,1988,06,24,w001,2400,29.38,26.65,24.50,28.86,28.42,26.08,
ast01,4,1988,06,25,w001,2400,29.90,27.09,24.87,29.58,28.88,26.47,
ast01,4,1988,06,26,w001,2400,28.99,26.90,24.74,29.28,28.70,26.61,
ast01,4,1988,06,27,w001,2400,28.16,26.26,24.14,28.46,28.08,26.25,
ast01,4,1988,06,28,w001,2400,29.11,26.54,24.30,28.69,28.12,26.16,
ast01,4,1988,06,29,w001,2400,28.28,26.61,24.91,28.05,27.90,26.52,
ast01,4,1988,06,30,w001,2400,24.63,24.34,23.44,24.18,24.62,24.88,
ast01,4,1988,07,01,w001,2400,21.98,22.38,22.30,21.11,21.76,23.22,
ast01,4,1988,07,02,w001,2400,21.31,21.25,21.09,20.23,20.47,21.64,
ast01,4,1988,07,03,w001,2400,23.74,23.10,21.49,22.54,22.73,21.74,
ast01,4,1988,07,04,w001,2400,25.87,25.66,22.83,24.89,25.09,23.28,
ast01,4,1988,07,05,w001,2400,27.00,26.85,24.00,26.41,26.63,24.55,
ast01,4,1988,07,06,w001,2400,27.52,27.33,24.57,27.01,27.27,25.25,
ast01,4,1988,07,07,w001,2400,26.97,26.94,24.62,26.60,27.03,25.48,
ast01,4,1988,07,08,w001,2400,25.55,25.42,23.79,25.04,25.45,25.08,
ast01,4,1988,07,09,w001,2400,23.78,23.97,22.88,22.84,23.24,23.84,
ast01,4,1988,07,10,w001,2400,24.16,24.24,22.64,23.79,23.47,23.18,
ast01,4,1988,07,11,w001,2400,24.65,24.91,23.07,24.58,24.37,23.56,
ast01,4,1988,07,12,w001,2400,25.48,25.61,23.60,25.23,25.24,24.13,
ast01,4,1988,07,13,w001,2400,26.63,26.36,24.21,25.95,25.96,24.70,
ast01,4,1988,07,14,w001,2400,27.73,27.26,25.03,27.42,27.24,25.50,
ast01,4,1988,07,15,w001,2400,27.04,26.97,25.11,26.84,27.07,25.90,
ast01,4,1988,07,16,w001,2400,26.32,26.37,24.59,26.10,26.06,25.28,
ast01,4,1988,07,17,w001,2400,25.86,26.13,24.67,25.77,25.83,25.35,
ast01,4,1988,07,18,w001,2400,26.03,26.14,24.48,26.06,25.69,24.99,
ast01,4,1988,07,19,w001,2400,24.63,25.13,24.17,24.69,24.60,24.94,
ast01,4,1988,07,20,w001,2400,23.98,24.63,23.49,23.62,22.99,23.90,
ast01,4,1988,07,21,w001,2400,22.52,23.53,22.54,22.34,22.20,23.17,
ast01,4,1988,07,22,w001,2400,23.09,23.67,22.27,22.59,22.67,22.75,
ast01,4,1988,07,23,w001,2400,24.67,24.67,22.75,24.16,24.06,23.08,
ast01,4,1988,07,24,w001,2400,25.48,25.25,23.39,25.46,25.11,23.82,
ast01,4,1988,07,25,w001,2400,25.72,25.65,23.90,26.11,25.69,24.48,
ast01,4,1988,07,26,w001,2400,23.21,23.79,22.75,23.75,23.88,23.90,
ast01,4,1988,07,27,w001,2400,23.92,23.91,22.39,23.98,23.84,23.35,
ast01,4,1988,07,28,w001,2400,24.48,24.21,22.81,24.60,24.47,23.68,
ast01,4,1988,07,29,w001,2400,24.53,24.03,22.89,24.71,24.48,23.77,
ast01,4,1988,07,30,w001,2400,26.16,24.92,23.59,26.01,25.43,24.21,
ast01,4,1988,07,31,w001,2400,26.82,25.37,24.12,26.67,25.91,24.59,
ast01,4,1988,08,01,w001,2400,27.11,25.40,24.44,27.15,26.50,25.06,
ast01,4,1988,08,02,w001,2400,27.73,25.59,24.77,27.79,26.95,25.38,
ast01,4,1988,08,03,w001,2400,28.16,25.77,25.11,28.25,27.36,25.75,
ast01,4,1988,08,04,w001,2400,27.34,25.06,24.99,27.65,27.01,25.90,
ast01,4,1988,08,05,w001,2400,26.31,24.53,24.29,26.74,26.10,25.39,
ast01,4,1988,08,06,w001,2400,26.52,24.26,23.56,26.71,25.91,24.92,
ast01,4,1988,08,07,w001,2400,29.04,25.88,25.33,28.98,27.69,25.75,
ast01,4,1988,08,08,w001,2400,28.96,25.87,25.65,29.10,28.01,26.39,
ast01,4,1988,08,09,w001,2400,26.12,24.71,25.03,26.65,26.32,25.92,
ast01,4,1988,08,10,w001,2400,26.42,24.56,24.54,26.37,25.96,25.29,
ast01,4,1988,08,11,w001,2400,27.69,25.32,25.21,27.36,26.94,25.64,
ast01,4,1988,08,12,w001,2400,26.37,24.38,24.67,26.25,26.22,25.51,
ast01,4,1988,08,13,w001,2400,25.88,23.93,24.11,25.86,25.38,24.86,
ast01,4,1988,08,14,w001,2400,27.58,25.23,25.16,27.40,26.76,25.53,
ast01,4,1988,08,15,w001,2400,28.05,25.76,25.81,27.72,27.34,26.22,
ast01,4,1988,08,16,w001,2400,27.84,25.64,25.88,27.43,27.25,26.36,
ast01,4,1988,08,17,w001,2400,27.86,25.47,25.72,27.50,27.24,26.21,
ast01,4,1988,08,18,w001,2400,26.80,24.81,25.33,26.79,26.75,26.11,
ast01,4,1988,08,19,w001,2400,25.10,23.66,24.50,25.33,25.40,25.47,
ast01,4,1988,08,20,w001,2400,24.66,23.20,23.83,24.81,24.60,24.65,
ast01,4,1988,08,21,w001,2400,26.51,24.00,24.25,26.18,25.65,24.73,
ast01,4,1988,08,22,w001,2400,27.01,24.31,24.93,26.76,26.32,25.43,
ast01,4,1988,08,23,w001,2400,24.91,23.25,24.03,24.73,24.61,24.64,
ast01,4,1988,08,24,w001,2400,24.44,22.89,23.74,24.36,24.21,24.29,
ast01,4,1988,08,25,w001,2400,22.84,21.42,22.35,22.56,22.66,23.32,
ast01,4,1988,08,26,w001,2400,22.43,20.87,21.60,22.04,22.27,22.74,
ast01,4,1988,08,27,w001,2400,21.81,20.61,21.79,21.75,22.02,22.52,
ast01,4,1988,08,28,w001,2400,19.32,18.83,19.66,19.47,19.92,21.29,
ast01,4,1988,08,29,w001,2400,20.08,18.59,19.28,19.59,19.74,20.57,
ast01,4,1988,08,30,w001,2400,21.80,19.44,20.26,21.15,21.07,20.87,
ast01,4,1988,08,31,w001,2400,22.87,20.08,20.96,22.52,22.32,21.53,
ast01,4,1988,09,01,w001,2400,22.65,19.82,20.82,22.41,22.16,21.81,
ast01,4,1988,09,02,w001,2400,22.50,19.85,20.90,22.49,22.14,21.85,
ast01,4,1988,09,03,w001,2400,21.09,18.87,19.88,21.49,21.34,21.58,
ast01,4,1988,09,04,w001,2400,20.53,18.36,19.04,21.20,21.02,21.24,
ast01,4,1988,09,05,w001,2400,19.44,17.62,18.20,20.42,20.36,20.90,
ast01,4,1988,09,06,w001,2400,19.57,17.22,17.91,20.02,19.95,20.34,
ast01,4,1988,09,07,w001,2400,21.65,18.37,19.48,21.72,21.22,20.61,
ast01,4,1988,09,08,w001,2400,23.39,19.55,20.63,23.67,22.82,21.58,
ast01,4,1988,09,09,w001,2400,23.21,19.37,20.67,23.37,22.72,21.87,
ast01,4,1988,09,10,w001,2400,24.49,20.44,21.83,24.69,23.87,22.36,
ast01,4,1988,09,11,w001,2400,24.56,20.70,22.13,24.79,24.26,22.91,
ast01,4,1988,09,12,w001,2400,24.13,20.58,22.05,24.67,24.18,23.17,
ast01,4,1988,09,13,w001,2400,22.10,19.33,20.51,22.74,22.58,22.44,
ast01,4,1988,09,14,w001,2400,22.72,19.34,20.84,22.99,22.51,22.09,
ast01,4,1988,09,15,w001,2400,22.06,19.39,21.25,22.30,22.18,22.12,
ast01,4,1988,09,16,w001,2400,22.47,19.53,21.31,22.28,21.86,21.74,
ast01,4,1988,09,17,w001,2400,24.32,20.63,22.41,24.09,23.43,22.34,
ast01,4,1988,09,18,w001,2400,23.51,20.32,22.35,23.41,23.30,22.81,
ast01,4,1988,09,19,w001,2400,20.37,18.46,20.86,19.48,20.75,21.79,
ast01,4,1988,09,20,w001,2400,18.97,17.05,19.16,18.23,18.86,19.93,
ast01,4,1988,09,21,w001,2400,21.67,18.39,20.23,21.16,20.88,20.31,
ast01,4,1988,09,22,w001,2400,22.95,19.59,21.43,22.85,22.69,21.60,
ast01,4,1988,09,23,w001,2400,18.96,17.29,19.98,19.20,19.95,20.89,
ast01,4,1988,09,24,w001,2400,18.11,16.25,18.36,17.98,18.61,19.42,
ast01,4,1988,09,25,w001,2400,18.81,16.23,18.01,18.49,18.85,18.96,
ast01,4,1988,09,26,w001,2400,20.88,17.46,19.41,20.43,20.37,19.59,
ast01,4,1988,09,27,w001,2400,21.53,18.04,20.08,21.20,21.13,20.41,
ast01,4,1988,09,28,w001,2400,20.73,17.84,19.98,20.39,20.56,20.43,
ast01,4,1988,09,29,w001,2400,18.28,16.04,18.75,17.17,17.93,19.33,
ast01,4,1988,09,30,w001,2400,17.65,15.37,17.80,16.79,17.07,18.20,
ast01,4,1988,10,01,w001,2400,16.51,14.74,17.24,16.08,16.56,17.78,
ast01,4,1988,10,02,w001,2400,15.29,13.86,16.23,15.01,15.77,17.08,
ast01,4,1988,10,03,w001,2400,15.06,13.30,15.54,14.46,15.16,16.34,
ast01,4,1988,10,04,w001,2400,13.78,12.73,15.16,13.47,14.47,15.89,
ast01,4,1988,10,05,w001,2400,12.70,11.55,13.90,11.77,12.77,14.67,
ast01,4,1988,10,06,w001,2400,12.68,11.28,13.83,11.63,12.41,14.02,
ast01,4,1988,10,07,w001,2400,13.21,11.50,13.92,12.14,12.65,13.79,
ast01,4,1988,10,08,w001,2400,14.05,12.08,14.17,13.20,13.43,14.05,
ast01,4,1988,10,09,w001,2400,13.73,12.05,13.91,13.27,13.68,14.22,
ast01,4,1988,10,10,w001,2400,14.02,11.96,14.00,13.55,14.07,14.34,
ast01,4,1988,10,11,w001,2400,11.37,10.49,12.00,11.28,12.66,13.87,
ast01,4,1988,10,12,w001,2400,11.38,09.95,11.30,10.88,11.99,12.97,
ast01,4,1988,10,13,w001,2400,14.88,11.73,13.70,14.15,14.27,13.68,
ast01,4,1988,10,14,w001,2400,16.75,12.93,15.01,16.19,16.02,14.96,
ast01,4,1988,10,15,w001,2400,17.52,13.77,15.83,17.14,16.97,15.99,
ast01,4,1988,10,16,w001,2400,16.37,13.22,15.11,16.13,16.40,16.05,
ast01,4,1988,10,17,w001,2400,18.09,14.26,16.50,17.89,17.78,16.72,
ast01,4,1988,10,18,w001,2400,14.58,12.43,14.70,14.57,15.49,16.19,
ast01,4,1988,10,19,w001,2400,12.41,10.54,12.67,11.95,13.02,14.61,
ast01,4,1988,10,20,w001,2400,13.67,11.37,13.72,12.85,13.15,13.99,
ast01,4,1988,10,21,w001,2400,12.52,10.74,12.81,12.44,13.20,13.92,
ast01,4,1988,10,22,w001,2400,14.65,11.60,13.67,14.14,14.15,14.06,
ast01,4,1988,10,23,w001,2400,12.47,10.89,13.38,12.42,13.67,14.47,
ast01,4,1988,10,24,w001,2400,10.54,08.95,10.73,10.21,11.23,12.96,
ast01,4,1988,10,25,w001,2400,12.30,10.11,12.32,12.01,12.40,13.11,
ast01,4,1988,10,26,w001,2400,10.48,08.80,10.61,10.31,11.27,12.56,
ast01,4,1988,10,27,w001,2400,12.24,09.95,12.09,12.46,12.87,13.02,
ast01,4,1988,10,28,w001,2400,08.09,7.359,09.10,08.42,10.01,12.01,
ast01,4,1988,10,29,w001,2400,09.84,08.17,10.62,09.46,10.00,11.24,
ast01,4,1988,10,30,w001,2400,09.97,08.40,10.53,09.68,10.25,11.08,
ast01,4,1988,10,31,w001,2400,10.44,08.31,10.18,10.26,10.84,11.14,
ast01,4,1988,11,01,w001,2400,10.82,08.32,10.13,10.74,11.25,11.42,
ast01,4,1988,11,02,w001,2400,12.44,09.35,11.55,12.35,12.62,12.24,
ast01,4,1988,11,03,w001,2400,12.06,09.25,11.37,12.03,12.41,12.56,
ast01,4,1988,11,04,w001,2400,11.94,09.25,11.42,12.07,12.55,12.65,
ast01,4,1988,11,05,w001,2400,10.80,08.61,11.26,10.63,11.64,12.36,
ast01,4,1988,11,06,w001,2400,09.50,7.483,09.88,08.99,10.19,11.31,
ast01,4,1988,11,07,w001,2400,10.10,7.913,09.83,10.36,10.90,11.29,
ast01,4,1988,11,08,w001,2400,08.73,6.967,08.45,08.96,09.90,10.97,
ast01,4,1988,11,09,w001,2400,10.09,7.903,10.00,09.96,10.57,11.22,
ast01,4,1988,11,10,w001,2400,7.283,6.456,08.19,7.495,08.92,10.49,
ast01,4,1988,11,11,w001,2400,08.93,6.934,08.77,08.33,09.02,10.02,
ast01,4,1988,11,12,w001,2400,09.83,7.787,09.79,09.35,10.07,10.51,
ast01,4,1988,11,13,w001,2400,09.53,7.068,09.24,09.06,09.65,10.35,
ast01,4,1988,11,14,w001,2400,11.05,7.679,09.93,10.59,10.60,10.65,
ast01,4,1989,04,18,w001,2400,13.68,6.099,14.28,15.27,14.21,12.76,Use data from 89/04/30
ast01,4,1989,04,19,w001,2400,12.55,4.822,13.73,13.68,12.58,11.76,to 89/05/16 with much
ast01,4,1989,04,20,w001,2400,16.69,6.335,15.66,15.55,14.16,13.15,caution!
ast01,4,1989,04,21,w001,2400,19.41,7.900,18.30,18.85,16.49,14.70,
ast01,4,1989,04,22,w001,2400,22.75,09.86,20.72,21.07,18.87,16.97,
ast01,4,1989,04,23,w001,2400,22.53,10.73,21.04,21.74,19.83,18.09,
ast01,4,1989,04,24,w001,2400,22.82,10.86,21.79,21.97,20.41,18.86,
ast01,4,1989,04,25,w001,2400,24.47,12.02,23.02,23.42,21.50,19.66,
ast01,4,1989,04,26,w001,2400,24.98,12.02,23.80,24.16,22.25,20.50,
ast01,4,1989,04,27,w001,2400,24.52,12.66,24.28,24.21,22.72,21.16,
ast01,4,1989,04,28,w001,2400,18.41,10.12,22.05,20.11,20.47,20.04,
ast01,4,1989,04,29,w001,2400,16.26,08.33,20.01,18.57,18.86,18.58,
ast01,4,1989,04,30,w001,2400,14.82,7.711,17.39,16.81,17.42,17.55,
ast01,4,1989,05,02,w001,2400,15.23,5.665,13.66,13.22,14.95,15.79,
ast01,4,1989,05,03,w001,2400,21.13,5.635,15.71,16.12,15.41,14.99,
ast01,4,1989,05,04,w001,2400,21.17,6.800,18.64,18.47,17.44,16.34,
ast01,4,1989,05,05,w001,2400,14.24,09.55,17.00,17.22,17.71,16.77,
ast01,4,1989,05,06,w001,2400,13.13,5.774,16.37,15.91,15.90,15.63,
ast01,4,1989,05,07,w001,2400,17.35,6.199,17.82,19.20,17.52,16.30,
ast01,4,1989,05,08,w001,2400,20.95,08.57,20.55,22.48,20.60,18.73,
ast01,4,1989,05,09,w001,2400,18.14,08.33,18.79,19.90,19.77,18.96,
ast01,4,1989,05,10,w001,2400,18.98,7.764,18.30,20.68,19.29,18.29,
ast01,4,1989,05,11,w001,2400,21.85,08.05,17.48,19.15,19.08,18.56,
ast01,4,1989,05,12,w001,2400,21.22,7.788,18.03,19.56,18.90,18.28,
ast01,4,1989,05,13,w001,2400,25.30,10.07,18.31,20.32,19.48,18.56,
ast01,4,1989,05,14,w001,2400,29.99,09.12,19.33,21.92,20.30,19.14,
ast01,4,1989,05,15,w001,2400,24.10,13.07,19.13,21.21,20.53,19.66,
ast01,4,1989,05,16,w001,2400,17.74,17.80,19.75,21.62,20.60,19.58,
ast01,4,1989,05,17,w001,2400,17.21,17.69,18.52,19.35,19.91,19.48,
ast01,4,1989,05,18,w001,2400,17.53,17.88,19.18,20.08,19.77,18.88,
ast01,4,1989,05,19,w001,2400,18.86,18.87,21.83,22.78,21.40,19.68,
ast01,4,1989,05,20,w001,2400,18.02,19.12,21.20,22.56,22.07,20.74,
ast01,4,1989,05,21,w001,2400,16.41,17.59,18.12,18.71,20.13,19.91,
ast01,4,1989,05,22,w001,2400,18.01,18.19,19.47,20.59,20.45,19.38,
ast01,4,1989,05,23,w001,2400,20.33,19.72,22.08,23.34,22.37,20.62,
ast01,4,1989,05,24,w001,2400,22.36,21.55,23.32,24.85,24.15,22.31,
ast01,4,1989,05,25,w001,2400,19.57,20.75,22.06,23.60,23.58,22.38,
ast01,4,1989,05,26,w001,2400,16.83,18.50,19.73,21.24,21.78,21.41,
ast01,4,1989,05,27,w001,2400,15.94,17.30,19.32,21.76,21.32,20.69,
ast01,4,1989,05,28,w001,2400,19.26,18.97,20.78,23.23,22.60,21.48,
ast01,4,1989,05,29,w001,2400,21.77,20.95,23.43,26.35,24.52,22.69,
ast01,4,1989,05,30,w001,2400,.,.,.,.,.,.,
ast01,4,1989,05,31,w001,2400,.,.,.,.,.,.,
ast01,4,1989,06,04,w001,2400,18.57,19.59,19.58,20.55,21.62,21.64,
ast01,4,1989,06,05,w001,2400,19.43,19.83,22.55,23.47,22.60,22.76,
ast01,4,1989,06,06,w001,2400,20.04,20.27,25.26,24.40,23.74,24.38,
ast01,4,1989,06,07,w001,2400,20.13,20.34,24.44,23.36,23.66,23.94,
ast01,4,1989,06,08,w001,2400,20.32,20.81,26.93,25.53,24.22,24.97,
ast01,4,1989,06,09,w001,2400,18.92,19.98,25.51,24.36,23.74,24.18,
ast01,4,1989,06,10,w001,2400,18.70,19.51,21.49,20.86,22.48,22.05,
ast01,4,1989,06,11,w001,2400,19.42,19.73,22.01,21.37,22.09,22.03,
ast01,4,1989,06,12,w001,2400,20.80,20.77,24.60,23.72,23.29,24.17,
ast01,4,1989,06,13,w001,2400,19.46,20.07,23.55,22.99,23.01,23.83,
ast01,4,1989,06,14,w001,2400,16.78,18.43,20.05,20.40,21.05,21.46,
ast01,4,1989,06,15,w001,2400,17.26,18.42,23.18,22.81,21.56,22.70,
ast01,4,1989,06,16,w001,2400,17.44,18.14,24.86,23.32,22.59,23.73,
ast01,4,1989,06,17,w001,2400,19.36,19.35,25.19,24.11,23.63,24.25,
ast01,4,1989,06,18,w001,2400,20.57,20.50,27.85,26.73,24.46,25.54,
ast01,4,1989,06,19,w001,2400,21.87,21.42,30.40,28.54,25.97,27.16,
ast01,4,1989,06,20,w001,2400,24.05,22.92,31.76,29.89,27.47,28.41,
ast01,4,1989,06,21,w001,2400,25.10,23.84,32.52,30.84,28.20,29.24,
ast01,4,1989,06,22,w001,2400,20.29,21.69,22.64,22.81,24.50,24.58,
ast01,4,1989,06,23,w001,2400,19.70,20.37,23.56,22.83,22.87,23.53,
ast01,4,1989,06,24,w001,2400,21.22,21.38,24.46,23.63,23.90,24.08,
ast01,4,1989,06,25,w001,2400,23.01,22.78,27.46,26.40,25.73,26.39,
ast01,4,1989,06,26,w001,2400,23.65,23.66,27.73,27.03,26.64,27.25,
ast01,4,1989,06,27,w001,2400,22.67,23.01,26.96,25.89,25.67,26.37,
ast01,4,1989,06,28,w001,2400,23.11,23.34,28.12,27.25,26.44,27.15,
ast01,4,1989,06,29,w001,2400,23.39,23.73,29.66,28.12,27.36,27.96,
ast01,4,1989,06,30,w001,2400,23.29,23.70,28.45,27.25,27.20,27.38,
ast01,4,1989,07,01,w001,2400,23.76,23.98,28.84,27.35,27.12,27.29,
ast01,4,1989,07,02,w001,2400,23.61,23.97,28.49,27.41,27.12,27.17,
ast01,4,1989,07,03,w001,2400,23.94,24.02,30.88,29.39,27.62,28.16,
ast01,4,1989,07,04,w001,2400,24.60,24.55,33.51,31.25,28.84,29.55,
ast01,4,1989,07,05,w001,2400,24.96,24.96,34.32,31.97,29.70,30.29,
ast01,4,1989,07,06,w001,2400,25.60,25.38,35.03,32.85,30.21,30.96,
ast01,4,1989,07,07,w001,2400,26.18,25.77,35.54,33.38,30.48,31.36,
ast01,4,1989,07,08,w001,2400,26.63,26.19,35.33,33.21,30.70,31.64,
ast01,4,1989,07,09,w001,2400,27.49,26.75,35.99,33.80,31.03,32.07,
ast01,4,1989,07,10,w001,2400,28.16,27.20,35.61,33.61,31.25,32.19,
ast01,4,1989,07,11,w001,2400,28.25,27.30,35.23,33.33,31.31,32.27,
ast01,4,1989,07,12,w001,2400,26.58,26.88,31.82,31.40,30.53,31.23,
ast01,4,1989,07,13,w001,2400,26.23,26.87,31.33,30.83,29.99,30.39,
ast01,4,1989,07,14,w001,2400,24.56,25.51,28.96,28.77,28.53,28.65,
ast01,4,1989,07,15,w001,2400,23.86,24.75,27.27,27.40,27.18,27.28,
ast01,4,1989,07,16,w001,2400,21.66,23.15,23.43,23.91,24.89,24.55,
ast01,4,1989,07,17,w001,2400,23.06,23.47,26.41,25.30,25.53,25.55,
ast01,4,1989,07,18,w001,2400,23.76,24.39,27.67,27.45,26.61,27.27,
ast01,4,1989,07,19,w001,2400,22.56,23.68,26.69,27.29,25.92,26.61,
ast01,4,1989,07,20,w001,2400,22.40,23.32,28.01,28.26,26.12,26.95,
ast01,4,1989,07,21,w001,2400,22.07,23.23,28.12,28.41,26.29,26.93,
ast01,4,1989,07,22,w001,2400,21.41,22.58,26.57,26.67,25.64,25.96,
ast01,4,1989,07,23,w001,2400,20.95,21.94,24.30,24.41,24.54,24.62,
ast01,4,1989,07,24,w001,2400,22.07,22.48,26.57,25.98,25.16,25.62,
ast01,4,1989,07,25,w001,2400,23.15,23.37,26.62,26.34,25.91,26.24,
ast01,4,1989,07,26,w001,2400,24.21,23.99,29.42,28.68,26.89,27.78,
ast01,4,1989,07,27,w001,2400,25.05,24.87,31.95,30.61,28.21,29.30,
ast01,4,1989,07,28,w001,2400,25.78,25.50,33.35,31.87,29.17,30.17,
ast01,4,1989,07,29,w001,2400,26.49,25.91,33.06,31.83,29.43,30.34,
ast01,4,1989,07,30,w001,2400,26.94,26.63,33.57,32.46,29.93,30.82,
ast01,4,1989,07,31,w001,2400,25.29,25.99,28.79,28.10,28.38,28.42,
ast01,4,1989,08,01,w001,2400,25.27,25.85,28.94,28.24,28.20,28.33,
ast01,4,1989,08,02,w001,2400,25.75,25.93,29.86,29.08,28.54,28.84,
ast01,4,1989,08,03,w001,2400,25.93,25.93,29.56,28.96,28.48,28.90,
ast01,4,1989,08,04,w001,2400,26.75,26.59,32.91,31.80,29.55,30.48,
ast01,4,1989,08,05,w001,2400,25.78,26.16,28.23,28.04,28.28,28.36,
ast01,4,1989,08,06,w001,2400,23.94,24.95,27.11,27.69,26.90,27.31,
ast01,4,1989,08,07,w001,2400,21.04,22.89,25.51,26.29,25.42,25.92,
ast01,4,1989,08,08,w001,2400,20.19,21.66,26.58,26.48,25.08,25.99,
ast01,4,1989,08,09,w001,2400,21.16,22.20,28.23,27.56,25.87,26.69,
ast01,4,1989,08,10,w001,2400,21.51,22.32,27.20,26.89,25.91,26.33,
ast01,4,1989,08,11,w001,2400,21.94,22.47,28.00,26.95,25.94,26.28,
ast01,4,1989,08,12,w001,2400,22.62,22.97,29.17,28.12,26.51,27.04,
ast01,4,1989,08,13,w001,2400,22.75,23.23,28.38,27.31,26.44,26.97,
ast01,4,1989,08,14,w001,2400,22.61,23.03,28.31,27.07,25.91,26.54,
ast01,4,1989,08,15,w001,2400,22.45,22.89,25.97,25.63,25.41,25.73,
ast01,4,1989,08,16,w001,2400,22.97,23.16,28.66,27.72,25.74,26.41,
ast01,4,1989,08,17,w001,2400,23.06,23.52,28.92,28.14,26.43,26.89,
ast01,4,1989,08,18,w001,2400,23.88,23.72,29.66,28.76,26.72,27.32,
ast01,4,1989,08,19,w001,2400,24.07,23.99,27.19,26.78,26.16,26.65,
ast01,4,1989,08,20,w001,2400,24.36,24.50,27.19,26.62,26.19,26.71,
ast01,4,1989,08,21,w001,2400,24.69,24.70,26.50,26.15,26.14,26.33,
ast01,4,1989,08,22,w001,2400,24.47,24.59,25.73,25.47,25.62,25.80,
ast01,4,1989,08,23,w001,2400,24.35,24.51,26.91,26.79,25.74,26.40,
ast01,4,1989,08,24,w001,2400,23.95,24.49,25.76,25.31,25.64,25.48,
ast01,4,1989,08,25,w001,2400,24.73,25.04,26.84,26.10,26.33,26.13,
ast01,4,1989,08,26,w001,2400,25.39,25.38,27.68,27.21,26.74,27.01,
ast01,4,1989,08,27,w001,2400,25.34,25.65,26.90,26.83,26.76,26.98,
ast01,4,1989,08,28,w001,2400,25.07,25.32,27.37,26.80,26.29,26.69,
ast01,4,1989,08,29,w001,2400,24.99,25.38,26.53,26.17,26.26,26.45,
ast01,4,1989,08,30,w001,2400,24.37,24.64,25.41,25.31,25.42,25.44,
ast01,4,1989,08,31,w001,2400,25.72,25.38,26.86,26.70,26.15,26.56,
ast01,4,1989,09,01,w001,2400,25.29,25.47,26.35,26.89,26.25,26.63,
ast01,4,1989,09,02,w001,2400,23.71,24.34,25.09,25.35,25.32,25.46,
ast01,4,1989,09,03,w001,2400,24.40,24.57,25.99,26.16,25.72,25.88,
ast01,4,1989,09,04,w001,2400,22.82,23.48,23.96,24.17,24.14,24.41,
ast01,4,1989,09,05,w001,2400,23.29,23.57,24.02,24.11,24.00,24.28,
ast01,4,1989,09,06,w001,2400,24.26,24.04,25.34,25.32,24.50,24.95,
ast01,4,1989,09,07,w001,2400,25.45,25.04,26.53,26.41,25.67,26.14,
ast01,4,1989,09,08,w001,2400,24.21,24.64,24.62,24.96,24.85,25.10,
ast01,4,1989,09,09,w001,2400,20.65,21.74,20.28,20.90,21.49,21.65,
ast01,4,1989,09,10,w001,2400,19.13,19.99,19.61,19.87,20.08,20.31,
ast01,4,1989,09,11,w001,2400,18.47,19.54,19.01,19.54,19.68,19.97,
ast01,4,1989,09,12,w001,2400,15.51,17.22,14.69,15.29,16.68,16.47,
ast01,4,1989,09,13,w001,2400,15.18,16.20,14.55,14.72,15.24,15.31,
ast01,4,1989,09,14,w001,2400,15.99,16.63,15.95,16.08,16.06,16.40,
ast01,4,1989,09,15,w001,2400,15.83,16.43,16.74,16.52,16.50,16.88,
ast01,4,1989,09,16,w001,2400,17.61,17.59,18.87,18.68,18.11,18.60,
ast01,4,1989,09,17,w001,2400,19.76,19.45,20.96,20.85,20.05,20.64,
ast01,4,1989,09,18,w001,2400,20.17,20.06,20.86,20.80,20.51,20.98,
ast01,4,1989,09,19,w001,2400,19.99,19.99,20.54,20.68,20.36,20.76,
ast01,4,1989,09,20,w001,2400,20.04,20.11,20.74,21.04,20.49,20.86,
ast01,4,1989,09,21,w001,2400,20.16,20.28,21.16,21.18,20.56,21.04,